Regional Weather Roundup
Issued by NWS

Home | Current Version | Previous Version | Text Only | Print | Product List | Glossary On
Versions: 1 2 3 4 5 6 7 8 9 10 11 12 13 14 15 16 17 18 19 20 21 22 23 24 25 26 27 28 29 30 31 32 33 34 35 36 37 38 39 40 41 42 43 44 45 46 47 48 49 50
000
ASUS46 KPQR 250310
RWROR

OREGON REGIONAL WEATHER ROUNDUP
NATIONAL WEATHER SERVICE PORTLAND OR
700 PM PST FRI FEB 24 2017

NOTE: "FAIR" INDICATES FEW OR NO CLOUDS BELOW 12,000 FEET WITH
NO SIGNIFICANT WEATHER AND/OR OBSTRUCTIONS TO VISIBILITY.

ORZ001>013-250400-
NORTHWEST OREGON


CITY           SKY/WX    TMP DP  RH WIND       PRES   REMARKS
ASTORIA        PTCLDY    38  32  79 E6        30.14S WCI  33
NEWPORT        DRIZZLE   36  36 100 SE5       30.16R WCI  32
PORTLAND       PTCLDY    37  34  89 SE3       30.19S
VANCOUVER WA   PTCLDY    37  37 100 CALM      30.18S
SCAPPOOSE      PTCLDY    37  36  96 CALM      30.18S
HILLSBORO      CLOUDY    39  36  89 NE3       30.17S
AURORA         CLOUDY    37  34  89 E5        30.19R WCI  33
MCMINNVILLE    CLOUDY    40  35  83 SE6       30.18R
SALEM          CLOUDY    38  34  85 SE5       30.16R WCI  34
CORVALLIS        N/A     39  36  87 CALM      30.14R
EUGENE         CLOUDY    40  37  89 SE6       30.15R
$$

ORZ021-028-250400-
SOUTHWEST OREGON


CITY           SKY/WX    TMP DP  RH WIND       PRES   REMARKS
NORTH BEND     CLOUDY    39  37  93 SE8       30.15S WCI  34
BROOKINGS      CLOUDY    37  35  92 VRB6      30.16F WCI  32
ROSEBURG       CLOUDY    40  37  89 N3        30.14S
SEXTON SUMMIT  SNOW      27  26  96 S9        30.01S VSB 1/4 WCI  18
MEDFORD        LGT RAIN  37  35  92 NE8       30.14R WCI  31
$$

ORZ014>016-041-250400-
COLUMBIA GORGE


CITY           SKY/WX    TMP DP  RH WIND       PRES   REMARKS
TROUTDALE      CLOUDY    39  33  79 E5        30.18F
THE DALLES     PTCLDY    38  26  62 SE3       30.19R
$$

ORZ029>031-041-044-049-050-061>064-502-503-505>511-250400-
EASTERN OREGON


CITY           SKY/WX    TMP DP  RH WIND       PRES   REMARKS
REDMOND        CLOUDY    33  20  58 W6        30.07R WCI  28
BEND           MOCLDY    32  21  64 S6        30.06R WCI  26
PRINEVILLE     CLOUDY    34  19  55 SW10      30.06R WCI  26
KLAMATH FALLS  CLOUDY    29  25  85 S10       30.04R WCI  20
LAKEVIEW       CLOUDY    27  18  69 SE6       30.04S WCI  20
HERMISTON      PTCLDY    36  24  62 NE6       30.17S WCI  31
PENDLETON      PTCLDY    33  26  75 NE10      30.14S WCI  25
JOHN DAY       MOCLDY    31  16  53 S8        30.07S WCI  24
MEACHAM        PTCLDY    22  16  78 CALM      30.07S
LA GRANDE      PTCLDY    28  19  69 CALM      30.11S
BAKER CITY     PTCLDY    25  21  85 NW5       30.10R WCI  19
BURNS          PTCLDY    17  13  84 NE7       30.07S WCI   8
ROME             N/A     21  12  68 SE14      30.07S WCI   8
ONTARIO        PTCLDY    30  18  60 CALM      30.18S
$$



USA.gov is the U.S. government's official web portal to all federal, state and local government web resources and services.